Saint Bonnet de Bellac- Haute Vienne - France
Donnes mto: vendredi, 02/11/2012
Date Horaire Temp. E. Hum. E. P.atmo. Pluie Vent Direction Direction Ensoleilleme Solaire P. de rose Temp au vent Rafales
02/11/2012 00:00 6,4 C 92 % 1001,5 hPa 0,0 mm 6,1 km/h (2 Bft) SO 225 0 min 0 W/m 5,2 C 5,3 C 11,2 km/h (2 Bft)
02/11/2012 00:15 6,5 C 92 % 1001,7 hPa 0,0 mm 6,8 km/h (2 Bft) S-SO 202 0 min 0 W/m 5,3 C 5,2 C 12,6 km/h (3 Bft)
02/11/2012 00:30 6,6 C 92 % 1001,9 hPa 0,0 mm 8,3 km/h (2 Bft) S-SO 202 0 min 0 W/m 5,4 C 4,9 C 15,1 km/h (3 Bft)
02/11/2012 00:45 6,6 C 92 % 1002,0 hPa 0,0 mm 6,5 km/h (2 Bft) S-SE 157 0 min 0 W/m 5,4 C 5,4 C 6,5 km/h (2 Bft)
02/11/2012 01:00 6,8 C 92 % 1002,2 hPa 0,0 mm 4,3 km/h (1 Bft) S-SO 202 0 min 0 W/m 5,6 C 6,8 C 8,6 km/h (2 Bft)
02/11/2012 01:15 6,9 C 92 % 1002,0 hPa 0,0 mm 4,7 km/h (1 Bft) S-SO 202 0 min 0 W/m 5,7 C 6,3 C 6,5 km/h (2 Bft)
02/11/2012 01:30 6,9 C 92 % 1002,1 hPa 0,0 mm 5,0 km/h (1 Bft) S-SO 202 0 min 0 W/m 5,7 C 6,2 C 7,9 km/h (2 Bft)
02/11/2012 01:45 7,1 C 92 % 1002,2 hPa 0,0 mm 9,0 km/h (2 Bft) S-SO 202 0 min 0 W/m 5,9 C 5,4 C 15,1 km/h (3 Bft)
02/11/2012 02:02 7,2 C 92 % 1002,3 hPa 0,0 mm 8,3 km/h (2 Bft) O-SO 247 0 min 0 W/m 6,0 C 5,6 C 12,2 km/h (2 Bft)
02/11/2012 02:15 7,4 C 92 % 1002,6 hPa 0,0 mm 4,7 km/h (1 Bft) SO 225 0 min 0 W/m 6,2 C 6,9 C 10,4 km/h (2 Bft)
02/11/2012 02:30 7,5 C 92 % 1002,8 hPa 0,0 mm 9,4 km/h (2 Bft) S-SO 202 0 min 0 W/m 6,3 C 5,8 C 9,4 km/h (2 Bft)
02/11/2012 02:45 7,5 C 92 % 1002,8 hPa 0,0 mm 9,0 km/h (2 Bft) SO 225 0 min 0 W/m 6,3 C 5,8 C 15,1 km/h (3 Bft)
02/11/2012 03:00 7,4 C 91 % 1003,1 hPa 0,0 mm 7,6 km/h (2 Bft) SO 225 0 min 0 W/m 6,0 C 6,0 C 8,3 km/h (2 Bft)
02/11/2012 03:15 7,4 C 91 % 1003,1 hPa 0,0 mm 4,3 km/h (1 Bft) S-SO 202 0 min 0 W/m 6,0 C 7,4 C 6,8 km/h (2 Bft)
02/11/2012 03:30 7,5 C 91 % 1003,4 hPa 0,0 mm 8,6 km/h (2 Bft) S-SO 202 0 min 0 W/m 6,1 C 5,9 C 13,0 km/h (3 Bft)
02/11/2012 03:45 7,5 C 91 % 1003,5 hPa 0,0 mm 3,6 km/h (1 Bft) SO 225 0 min 0 W/m 6,1 C 7,5 C 6,8 km/h (2 Bft)
02/11/2012 04:00 7,5 C 91 % 1003,6 hPa 0,0 mm 3,6 km/h (1 Bft) SO 225 0 min 0 W/m 6,1 C 7,5 C 4,3 km/h (1 Bft)
02/11/2012 04:15 7,4 C 91 % 1003,2 hPa 0,0 mm 2,9 km/h (1 Bft) S-SO 202 0 min 0 W/m 6,0 C 7,4 C 6,1 km/h (2 Bft)
02/11/2012 04:30 7,1 C 92 % 1003,1 hPa 0,0 mm 6,8 km/h (2 Bft) S 180 0 min 0 W/m 5,9 C 5,9 C 10,8 km/h (2 Bft)
02/11/2012 04:45 7,1 C 92 % 1003,5 hPa 0,0 mm 5,8 km/h (2 Bft) S-SO 202 0 min 0 W/m 5,9 C 6,2 C 7,9 km/h (2 Bft)
02/11/2012 05:00 7,1 C 92 % 1003,3 hPa 0,0 mm 8,3 km/h (2 Bft) S-SO 202 0 min 0 W/m 5,9 C 5,5 C 13,3 km/h (3 Bft)
02/11/2012 05:15 7,2 C 92 % 1003,1 hPa 0,0 mm 4,3 km/h (1 Bft) SO 225 0 min 0 W/m 6,0 C 7,2 C 8,3 km/h (2 Bft)
02/11/2012 05:30 7,2 C 92 % 1003,2 hPa 0,0 mm 5,8 km/h (2 Bft) S-SO 202 0 min 0 W/m 6,0 C 6,3 C 11,9 km/h (2 Bft)
02/11/2012 05:45 7,1 C 93 % 1003,3 hPa 0,0 mm 3,6 km/h (1 Bft) S-SO 202 0 min 0 W/m 6,0 C 7,1 C 7,6 km/h (2 Bft)
02/11/2012 06:00 7,1 C 93 % 1003,2 hPa 0,0 mm 9,0 km/h (2 Bft) O 270 0 min 0 W/m 6,0 C 5,4 C 11,2 km/h (2 Bft)
02/11/2012 06:15 7,1 C 93 % 1003,3 hPa 0,0 mm 10,4 km/h (2 Bft) S-SO 202 0 min 0 W/m 6,0 C 5,1 C 15,1 km/h (3 Bft)
02/11/2012 06:30 7,2 C 93 % 1003,2 hPa 0,0 mm 7,9 km/h (2 Bft) O-SO 247 0 min 0 W/m 6,1 C 5,7 C 7,9 km/h (2 Bft)
02/11/2012 06:45 7,5 C 93 % 1002,9 hPa 0,0 mm 8,3 km/h (2 Bft) SO 225 0 min 0 W/m 6,4 C 6,0 C 10,8 km/h (2 Bft)
02/11/2012 07:00 7,6 C 93 % 1002,6 hPa 0,0 mm 10,1 km/h (2 Bft) S-SE 157 0 min 0 W/m 6,5 C 5,7 C 13,0 km/h (3 Bft)
02/11/2012 07:15 7,8 C 93 % 1002,6 hPa 0,0 mm 7,2 km/h (2 Bft) SO 225 0 min 0 W/m 6,7 C 6,6 C 11,2 km/h (2 Bft)
02/11/2012 07:30 7,9 C 93 % 1003,0 hPa 0,0 mm 5,4 km/h (2 Bft) S 180 0 min 0 W/m 6,8 C 7,2 C 6,1 km/h (2 Bft)
02/11/2012 07:45 8,1 C 93 % 1003,0 hPa 0,0 mm 7,6 km/h (2 Bft) S-SE 157 0 min 0 W/m 7,0 C 6,9 C 9,4 km/h (2 Bft)
02/11/2012 08:00 8,3 C 93 % 1002,8 hPa 0,0 mm 15,1 km/h (3 Bft) S-SO 202 0 min 0 W/m 7,2 C 5,8 C 22,7 km/h (4 Bft)
02/11/2012 08:15 8,5 C 94 % 1002,9 hPa 0,0 mm 8,6 km/h (2 Bft) S-SO 202 0 min 0 W/m 7,6 C 7,1 C 8,6 km/h (2 Bft)
02/11/2012 08:30 8,6 C 94 % 1002,8 hPa 0,0 mm 7,2 km/h (2 Bft) S 180 0 min 0 W/m 7,7 C 7,5 C 8,3 km/h (2 Bft)
02/11/2012 08:45 8,6 C 94 % 1002,6 hPa 0,0 mm 6,5 km/h (2 Bft) S 180 0 min 0 W/m 7,7 C 7,7 C 15,1 km/h (3 Bft)
02/11/2012 09:00 8,7 C 94 % 1002,5 hPa 0,0 mm 6,1 km/h (2 Bft) S-SO 202 0 min 0 W/m 7,8 C 7,9 C 6,1 km/h (2 Bft)
02/11/2012 09:15 8,8 C 94 % 1002,6 hPa 0,0 mm 5,0 km/h (1 Bft) S 180 0 min 0 W/m 7,9 C 8,4 C 7,9 km/h (2 Bft)
02/11/2012 09:30 9,1 C 94 % 1002,6 hPa 0,0 mm 11,5 km/h (2 Bft) S-SO 202 0 min 0 W/m 8,2 C 7,3 C 15,1 km/h (3 Bft)
02/11/2012 09:45 9,4 C 94 % 1002,7 hPa 0,0 mm 9,0 km/h (2 Bft) O-SO 247 0 min 0 W/m 8,5 C 8,1 C 10,4 km/h (2 Bft)
02/11/2012 10:00 9,5 C 94 % 1002,5 hPa 0,0 mm 11,2 km/h (2 Bft) SO 225 0 min 0 W/m 8,6 C 7,8 C 16,9 km/h (3 Bft)
02/11/2012 10:15 9,7 C 94 % 1002,3 hPa 0,0 mm 10,8 km/h (2 Bft) S 180 0 min 0 W/m 8,8 C 8,1 C 15,8 km/h (3 Bft)
02/11/2012 10:30 10,1 C 93 % 1002,1 hPa 0,0 mm 16,9 km/h (3 Bft) S-SO 202 0 min 0 W/m 9,0 C 10,1 C 34,6 km/h (5 Bft)
02/11/2012 10:45 10,3 C 93 % 1002,3 hPa 0,0 mm 14,4 km/h (3 Bft) S-SO 202 0 min 0 W/m 9,2 C 10,3 C 24,1 km/h (4 Bft)
02/11/2012 11:00 10,3 C 92 % 1002,1 hPa 0,0 mm 14,4 km/h (3 Bft) SO 225 0 min 0 W/m 9,1 C 10,3 C 14,4 km/h (3 Bft)
02/11/2012 11:15 10,3 C 92 % 1002,0 hPa 0,0 mm 13,3 km/h (3 Bft) SO 225 0 min 0 W/m 9,1 C 10,3 C 19,1 km/h (3 Bft)
02/11/2012 11:30 10,4 C 93 % 1001,6 hPa 0,0 mm 16,6 km/h (3 Bft) S-SO 202 0 min 0 W/m 9,3 C 10,4 C 28,1 km/h (5 Bft)
02/11/2012 11:45 10,6 C 92 % 1001,6 hPa 0,0 mm 13,0 km/h (3 Bft) S 180 0 min 0 W/m 9,4 C 10,6 C 16,2 km/h (3 Bft)
02/11/2012 12:00 10,8 C 92 % 1001,6 hPa 0,0 mm 12,6 km/h (3 Bft) S-SO 202 0 min 0 W/m 9,6 C 10,8 C 15,5 km/h (3 Bft)
02/11/2012 12:15 10,8 C 93 % 1001,4 hPa 0,0 mm 15,8 km/h (3 Bft) O-SO 247 0 min 0 W/m 9,7 C 10,8 C 18,0 km/h (3 Bft)
02/11/2012 12:30 10,8 C 93 % 1001,1 hPa 0,0 mm 10,4 km/h (2 Bft) S-SO 202 0 min 0 W/m 9,7 C 10,8 C 15,1 km/h (3 Bft)
02/11/2012 12:45 10,8 C 93 % 1001,3 hPa 0,0 mm 6,8 km/h (2 Bft) O-SO 247 0 min 0 W/m 9,7 C 10,8 C 19,8 km/h (3 Bft)
02/11/2012 13:00 10,8 C 93 % 1002,0 hPa 0,0 mm 3,2 km/h (1 Bft) O-NO 292 0 min 0 W/m 9,7 C 10,8 C 14,4 km/h (3 Bft)
02/11/2012 13:15 10,1 C 93 % 1002,4 hPa 0,0 mm 10,1 km/h (2 Bft) O-SO 247 0 min 0 W/m 9,0 C 10,1 C 19,4 km/h (3 Bft)
02/11/2012 13:30 9,8 C 93 % 1002,2 hPa 0,0 mm 2,9 km/h (1 Bft) SO 225 0 min 0 W/m 8,7 C 9,8 C 4,3 km/h (1 Bft)
02/11/2012 13:45 9,9 C 94 % 1002,2 hPa 0,0 mm 7,2 km/h (2 Bft) S-SO 202 0 min 0 W/m 9,0 C 9,1 C 9,4 km/h (2 Bft)
02/11/2012 14:00 9,9 C 93 % 1002,5 hPa 0,0 mm 6,8 km/h (2 Bft) SO 225 0 min 0 W/m 8,8 C 9,2 C 15,1 km/h (3 Bft)
02/11/2012 14:15 9,9 C 94 % 1002,6 hPa 0,0 mm 8,3 km/h (2 Bft) O-SO 247 0 min 0 W/m 9,0 C 8,8 C 13,0 km/h (3 Bft)
02/11/2012 14:30 10,4 C 95 % 1002,7 hPa 0,0 mm 7,9 km/h (2 Bft) S-SO 202 0 min 0 W/m 9,6 C 10,4 C 20,5 km/h (4 Bft)
02/11/2012 14:45 10,8 C 95 % 1002,6 hPa 0,0 mm 10,8 km/h (2 Bft) O-SO 247 0 min 0 W/m 10,0 C 10,8 C 11,5 km/h (2 Bft)
02/11/2012 15:00 12,0 C 89 % 1002,5 hPa 0,0 mm 9,7 km/h (2 Bft) SO 225 0 min 0 W/m 10,2 C 12,0 C 13,0 km/h (3 Bft)
02/11/2012 15:15 11,9 C 90 % 1002,8 hPa 0,0 mm 14,4 km/h (3 Bft) S-SO 202 0 min 0 W/m 10,3 C 11,9 C 20,5 km/h (4 Bft)
02/11/2012 15:30 11,8 C 90 % 1003,2 hPa 0,1 mm 11,2 km/h (2 Bft) O-SO 247 0 min 0 W/m 10,2 C 11,8 C 11,2 km/h (2 Bft)
02/11/2012 15:45 11,7 C 90 % 1003,0 hPa 0,0 mm 10,4 km/h (2 Bft) O-SO 247 0 min 0 W/m 10,1 C 11,7 C 20,5 km/h (4 Bft)
02/11/2012 16:00 11,6 C 90 % 1003,6 hPa 0,1 mm 17,6 km/h (3 Bft) O-SO 247 0 min 0 W/m 10,0 C 11,6 C 25,9 km/h (4 Bft)
02/11/2012 16:15 11,6 C 90 % 1003,8 hPa 0,0 mm 12,2 km/h (2 Bft) S-SO 202 0 min 0 W/m 10,0 C 11,6 C 19,4 km/h (3 Bft)
02/11/2012 16:30 11,6 C 91 % 1003,8 hPa 0,1 mm 12,6 km/h (3 Bft) S-SO 202 0 min 0 W/m 10,2 C 11,6 C 15,1 km/h (3 Bft)
02/11/2012 16:45 11,6 C 91 % 1003,7 hPa 0,1 mm 12,2 km/h (2 Bft) O 270 0 min 0 W/m 10,2 C 11,6 C 14,0 km/h (3 Bft)
02/11/2012 17:00 11,7 C 91 % 1003,8 hPa 0,0 mm 12,2 km/h (2 Bft) SO 225 0 min 0 W/m 10,3 C 11,7 C 22,0 km/h (4 Bft)
02/11/2012 17:15 11,7 C 90 % 1004,1 hPa 0,0 mm 6,8 km/h (2 Bft) SO 225 0 min 0 W/m 10,1 C 11,7 C 11,9 km/h (2 Bft)
02/11/2012 17:30 11,6 C 91 % 1004,2 hPa 0,0 mm 6,8 km/h (2 Bft) O-SO 247 0 min 0 W/m 10,2 C 11,6 C 7,9 km/h (2 Bft)
02/11/2012 17:45 11,5 C 91 % 1004,0 hPa 0,1 mm 6,5 km/h (2 Bft) S-SO 202 0 min 0 W/m 10,1 C 11,5 C 10,8 km/h (2 Bft)
02/11/2012 18:00 11,5 C 91 % 1004,4 hPa 0,0 mm 9,0 km/h (2 Bft) SO 225 0 min 0 W/m 10,1 C 11,5 C 10,4 km/h (2 Bft)
02/11/2012 18:15 11,4 C 91 % 1004,7 hPa 0,1 mm 7,6 km/h (2 Bft) SO 225 0 min 0 W/m 10,0 C 11,4 C 11,5 km/h (2 Bft)
02/11/2012 18:30 11,4 C 91 % 1004,5 hPa 0,1 mm 9,4 km/h (2 Bft) S-SO 202 0 min 0 W/m 10,0 C 11,4 C 16,9 km/h (3 Bft)
02/11/2012 18:45 11,3 C 90 % 1004,6 hPa 0,0 mm 8,3 km/h (2 Bft) S-SO 202 0 min 0 W/m 9,7 C 11,3 C 11,2 km/h (2 Bft)
02/11/2012 19:00 11,3 C 90 % 1004,8 hPa 0,0 mm 7,9 km/h (2 Bft) S-SO 202 0 min 0 W/m 9,7 C 11,3 C 9,7 km/h (2 Bft)
02/11/2012 19:15 11,2 C 90 % 1005,0 hPa 0,1 mm 11,2 km/h (2 Bft) S 180 0 min 0 W/m 9,6 C 11,2 C 14,8 km/h (3 Bft)
02/11/2012 19:30 10,9 C 90 % 1004,8 hPa 0,1 mm 9,4 km/h (2 Bft) SO 225 0 min 0 W/m 9,3 C 10,9 C 11,2 km/h (2 Bft)
02/11/2012 19:45 10,7 C 91 % 1005,0 hPa 0,0 mm 7,9 km/h (2 Bft) S-SE 157 0 min 0 W/m 9,3 C 10,7 C 11,2 km/h (2 Bft)
02/11/2012 20:00 10,6 C 92 % 1004,8 hPa 0,1 mm 0,0 km/h (0 Bft) S-SO 202 0 min 0 W/m 9,4 C 10,6 C 0,0 km/h (0 Bft)
02/11/2012 20:15 10,8 C 93 % 1004,7 hPa 0,0 mm 7,6 km/h (2 Bft) S-SO 202 0 min 0 W/m 9,7 C 10,8 C 10,4 km/h (2 Bft)
02/11/2012 20:30 11,1 C 93 % 1004,6 hPa 0,1 mm 8,6 km/h (2 Bft) SO 225 0 min 0 W/m 10,0 C 11,1 C 13,3 km/h (3 Bft)
02/11/2012 20:45 11,4 C 93 % 1004,6 hPa 0,0 mm 13,0 km/h (3 Bft) S-SO 202 0 min 0 W/m 10,3 C 11,4 C 14,8 km/h (3 Bft)
02/11/2012 21:00 11,6 C 93 % 1004,6 hPa 0,0 mm 11,9 km/h (2 Bft) S-SO 202 0 min 0 W/m 10,5 C 11,6 C 20,2 km/h (4 Bft)
02/11/2012 21:15 11,9 C 92 % 1004,9 hPa 0,1 mm 12,2 km/h (2 Bft) O-SO 247 0 min 0 W/m 10,6 C 11,9 C 25,9 km/h (4 Bft)
02/11/2012 21:30 12,2 C 92 % 1005,1 hPa 0,0 mm 13,7 km/h (3 Bft) SO 225 0 min 0 W/m 10,9 C 12,2 C 13,7 km/h (3 Bft)
02/11/2012 21:45 12,2 C 92 % 1005,3 hPa 0,2 mm 7,2 km/h (2 Bft) SO 225 0 min 0 W/m 10,9 C 12,2 C 8,3 km/h (2 Bft)
02/11/2012 22:00 12,2 C 92 % 1005,2 hPa 0,0 mm 8,3 km/h (2 Bft) SO 225 0 min 0 W/m 10,9 C 12,2 C 8,3 km/h (2 Bft)
02/11/2012 22:15 12,2 C 92 % 1005,3 hPa 0,0 mm 6,8 km/h (2 Bft) S 180 0 min 0 W/m 10,9 C 12,2 C 9,7 km/h (2 Bft)
02/11/2012 22:30 12,2 C 92 % 1005,3 hPa 0,0 mm 9,0 km/h (2 Bft) SO 225 0 min 0 W/m 10,9 C 12,2 C 13,0 km/h (3 Bft)
02/11/2012 22:45 12,1 C 91 % 1005,2 hPa 0,0 mm 7,6 km/h (2 Bft) SO 225 0 min 0 W/m 10,7 C 12,1 C 10,1 km/h (2 Bft)
02/11/2012 23:00 12,1 C 90 % 1005,2 hPa 0,0 mm 7,2 km/h (2 Bft) S-SO 202 0 min 0 W/m 10,5 C 12,1 C 7,2 km/h (2 Bft)
02/11/2012 23:15 12,2 C 90 % 1005,2 hPa 0,0 mm 9,0 km/h (2 Bft) S-SO 202 0 min 0 W/m 10,6 C 12,2 C 9,4 km/h (2 Bft)
02/11/2012 23:30 12,3 C 90 % 1005,2 hPa 0,1 mm 7,9 km/h (2 Bft) S 180 0 min 0 W/m 10,7 C 12,3 C 13,0 km/h (3 Bft)
_ Min-Heure 00:00 15:00 12:30 - 20:00 - - - - 00:00 00:30 20:00
Minimum _ 6,4 C 89 % 1001,1 hPa - 0,0 km/h (0 Bft) - - - - 5,2 C 4,9 C 0,0 km/h (0 Bft)
_ Max-Heure 23:30 14:45 22:30 21:45 16:00 - - 23:30 23:30 22:30 23:30 10:30
Maximum _ 12,3 C 95 % 1005,3 hPa 0,2 mm 17,6 km/h
O-SO (3 Bft)
- - 0 min 0 W/m 10,9 C 12,3 C 34,6 km/h
S-SO (5 Bft)
Moyenne _ 9,7 C 92 % 1003,3 hPa #0,9 mm 8,8 km/h (2 Bft) S-SO - #0 min. 0 W/m 8,4 C 9,1 C 12,9 km/h (3 Bft)
Saint Bonnet de Bellac- Haute Vienne - France